Time,TemperatureF,DewpointF,PressureIn,WindDirection,WindDirectionDegrees,WindSpeedMPH,WindSpeedGustMPH,Humidity,HourlyPrecipIn,Conditions,Clouds,dailyrainin,SolarRadiationWatts/m^2,SoftwareType,DateUTC
2013-05-13 00:21:00,57.0,32.0,-100.00,East,89,6.0,9.0,38,0.00,,,0.00,0.000000,,2013-05-13 06:21:00,
2013-05-13 00:31:00,57.0,32.0,-100.00,East,89,6.0,9.0,38,0.00,,,0.00,0.000000,,2013-05-13 06:31:00,
2013-05-13 00:42:00,57.0,32.0,-100.00,East,89,6.0,9.0,38,0.00,,,0.00,0.000000,,2013-05-13 06:42:00,
2013-05-13 00:52:00,57.0,32.0,-100.00,East,89,6.0,9.0,38,0.00,,,0.00,0.000000,,2013-05-13 06:52:00,
2013-05-13 01:22:00,56.0,32.0,-100.00,East,84,7.0,13.0,40,0.00,,,0.00,0.000000,,2013-05-13 07:22:00,
2013-05-13 01:31:00,56.0,32.0,-100.00,East,84,7.0,13.0,40,0.00,,,0.00,0.000000,,2013-05-13 07:31:00,
2013-05-13 01:41:00,56.0,32.0,-100.00,East,84,7.0,13.0,40,0.00,,,0.00,0.000000,,2013-05-13 07:41:00,
2013-05-13 01:52:00,56.0,32.0,-100.00,East,84,7.0,13.0,40,0.00,,,0.00,0.000000,,2013-05-13 07:52:00,
2013-05-13 02:21:00,52.0,31.0,-100.00,SE,126,4.0,11.0,44,0.00,,,0.00,0.000000,,2013-05-13 08:21:00,
2013-05-13 02:31:00,52.0,31.0,-100.00,SE,126,4.0,11.0,44,0.00,,,0.00,0.000000,,2013-05-13 08:31:00,
2013-05-13 02:42:00,52.0,31.0,-100.00,SE,126,4.0,11.0,44,0.00,,,0.00,0.000000,,2013-05-13 08:42:00,
2013-05-13 02:51:00,52.0,31.0,-100.00,SE,126,4.0,11.0,44,0.00,,,0.00,0.000000,,2013-05-13 08:51:00,
2013-05-13 03:21:00,50.0,31.0,-100.00,ESE,102,5.0,9.0,47,0.00,,,0.00,0.000000,,2013-05-13 09:21:00,
2013-05-13 03:42:00,50.0,31.0,-100.00,ESE,102,5.0,9.0,47,0.00,,,0.00,0.000000,,2013-05-13 09:42:00,
2013-05-13 03:52:00,50.0,31.0,-100.00,ESE,102,5.0,9.0,47,0.00,,,0.00,0.000000,,2013-05-13 09:52:00,
2013-05-13 04:22:00,50.0,32.0,-100.00,East,99,4.0,10.0,50,0.00,,,0.00,0.000000,,2013-05-13 10:22:00,
2013-05-13 04:32:00,50.0,32.0,-100.00,East,99,4.0,10.0,50,0.00,,,0.00,0.000000,,2013-05-13 10:32:00,
2013-05-13 04:42:00,50.0,32.0,-100.00,East,99,4.0,10.0,50,0.00,,,0.00,0.000000,,2013-05-13 10:42:00,
2013-05-13 04:52:00,50.0,32.0,-100.00,East,99,4.0,10.0,50,0.00,,,0.00,0.000000,,2013-05-13 10:52:00,
2013-05-13 05:21:00,49.0,32.0,-100.00,ESE,111,3.0,7.0,52,-99.99,,,0.00,0.000000,,2013-05-13 11:21:00,
2013-05-13 05:41:00,49.0,32.0,-100.00,ESE,111,3.0,7.0,52,-99.99,,,0.00,0.000000,,2013-05-13 11:41:00,
2013-05-13 05:51:00,49.0,32.0,-100.00,ESE,111,3.0,7.0,52,-99.99,,,0.00,0.000000,,2013-05-13 11:51:00,
2013-05-13 06:21:00,48.0,32.0,-100.00,East,96,2.0,7.0,54,-99.99,,,0.00,0.000000,,2013-05-13 12:21:00,
2013-05-13 06:32:00,48.0,32.0,-100.00,East,96,2.0,7.0,54,-99.99,,,0.00,0.000000,,2013-05-13 12:32:00,
2013-05-13 06:42:00,48.0,32.0,-100.00,East,96,2.0,7.0,54,-99.99,,,0.00,0.000000,,2013-05-13 12:42:00,
2013-05-13 06:51:00,48.0,32.0,-100.00,East,96,2.0,7.0,54,-99.99,,,0.00,0.000000,,2013-05-13 12:51:00,
2013-05-13 07:21:00,47.0,32.0,-100.00,ESE,119,3.0,7.0,55,-99.99,,,0.00,39.000000,,2013-05-13 13:21:00,
2013-05-13 07:31:00,47.0,32.0,-100.00,ESE,119,3.0,7.0,55,-99.99,,,0.00,39.000000,,2013-05-13 13:31:00,
2013-05-13 07:41:00,47.0,32.0,-100.00,ESE,119,3.0,7.0,55,-99.99,,,0.00,39.000000,,2013-05-13 13:41:00,
2013-05-13 07:52:00,47.0,32.0,-100.00,ESE,119,3.0,7.0,55,-99.99,,,0.00,39.000000,,2013-05-13 13:52:00,
2013-05-13 08:22:00,60.0,34.0,-100.00,East,92,3.0,5.0,37,0.00,,,0.00,290.000000,,2013-05-13 14:22:00,
2013-05-13 08:31:00,60.0,34.0,-100.00,East,92,3.0,5.0,37,0.00,,,0.00,290.000000,,2013-05-13 14:31:00,
2013-05-13 08:41:00,60.0,34.0,-100.00,East,92,3.0,5.0,37,0.00,,,0.00,290.000000,,2013-05-13 14:41:00,
2013-05-13 08:51:00,60.0,34.0,-100.00,East,92,3.0,5.0,37,0.00,,,0.00,290.000000,,2013-05-13 14:51:00,
2013-05-13 09:21:00,67.0,38.0,-100.00,WNW,286,1.0,5.0,34,0.00,,,0.00,492.000000,,2013-05-13 15:21:00,
2013-05-13 09:31:00,67.0,38.0,-100.00,WNW,286,1.0,5.0,34,0.00,,,0.00,492.000000,,2013-05-13 15:31:00,
2013-05-13 09:42:00,67.0,38.0,-100.00,WNW,286,1.0,5.0,34,0.00,,,0.00,492.000000,,2013-05-13 15:42:00,
2013-05-13 09:52:00,67.0,38.0,-100.00,WNW,286,1.0,5.0,34,0.00,,,0.00,492.000000,,2013-05-13 15:52:00,
2013-05-13 10:21:00,72.0,35.0,-100.00,WNW,295,3.0,6.0,26,0.00,,,0.00,793.000000,,2013-05-13 16:21:00,
2013-05-13 10:33:00,72.0,35.0,-100.00,WNW,295,3.0,6.0,26,0.00,,,0.00,793.000000,,2013-05-13 16:33:00,
2013-05-13 10:42:00,72.0,35.0,-100.00,WNW,295,3.0,6.0,26,0.00,,,0.00,793.000000,,2013-05-13 16:42:00,
2013-05-13 10:52:00,72.0,35.0,-100.00,WNW,295,3.0,6.0,26,0.00,,,0.00,793.000000,,2013-05-13 16:52:00,
2013-05-13 11:21:00,76.0,36.0,-100.00,NNW,337,4.0,10.0,23,0.00,,,0.00,939.000000,,2013-05-13 17:21:00,
2013-05-13 11:32:00,76.0,36.0,-100.00,NNW,337,4.0,10.0,23,0.00,,,0.00,939.000000,,2013-05-13 17:32:00,
2013-05-13 11:42:00,76.0,36.0,-100.00,NNW,337,4.0,10.0,23,0.00,,,0.00,939.000000,,2013-05-13 17:42:00,
2013-05-13 11:54:00,76.0,36.0,-100.00,NNW,337,4.0,10.0,23,0.00,,,0.00,939.000000,,2013-05-13 17:54:00,
2013-05-13 12:23:00,79.0,33.0,-100.00,North,356,6.0,11.0,19,0.00,,,0.00,1119.000000,,2013-05-13 18:23:00,
2013-05-13 12:32:00,79.0,33.0,-100.00,North,356,6.0,11.0,19,0.00,,,0.00,1119.000000,,2013-05-13 18:32:00,
2013-05-13 12:42:00,79.0,33.0,-100.00,North,356,6.0,11.0,19,0.00,,,0.00,1119.000000,,2013-05-13 18:42:00,
2013-05-13 12:51:00,79.0,33.0,-100.00,North,356,6.0,11.0,19,0.00,,,0.00,1119.000000,,2013-05-13 18:51:00,
2013-05-13 13:21:00,84.0,28.0,-100.00,West,271,5.0,12.0,13,0.00,,,0.00,1222.000000,,2013-05-13 19:21:00,
2013-05-13 13:32:00,84.0,28.0,-100.00,West,271,5.0,12.0,13,0.00,,,0.00,1222.000000,,2013-05-13 19:32:00,
2013-05-13 13:43:00,84.0,28.0,-100.00,West,271,5.0,12.0,13,0.00,,,0.00,1222.000000,,2013-05-13 19:43:00,
2013-05-13 13:52:00,84.0,28.0,-100.00,West,271,5.0,12.0,13,0.00,,,0.00,1222.000000,,2013-05-13 19:52:00,
2013-05-13 14:23:00,87.0,26.0,-100.00,North,8,4.0,13.0,11,0.00,,,0.00,1247.000000,,2013-05-13 20:23:00,
2013-05-13 14:33:00,87.0,26.0,-100.00,North,8,4.0,13.0,11,0.00,,,0.00,1247.000000,,2013-05-13 20:33:00,
2013-05-13 14:44:00,87.0,26.0,-100.00,North,8,4.0,13.0,11,0.00,,,0.00,1247.000000,,2013-05-13 20:44:00,
2013-05-13 14:53:00,87.0,26.0,-100.00,North,8,4.0,13.0,11,0.00,,,0.00,1247.000000,,2013-05-13 20:53:00,
2013-05-13 15:23:00,86.0,21.0,-100.00,West,263,5.0,14.0,9,0.00,,,0.00,1180.000000,,2013-05-13 21:23:00,
2013-05-13 15:33:00,86.0,21.0,-100.00,West,263,5.0,14.0,9,0.00,,,0.00,1180.000000,,2013-05-13 21:33:00,
2013-05-13 15:43:00,86.0,21.0,-100.00,West,263,5.0,14.0,9,0.00,,,0.00,1180.000000,,2013-05-13 21:43:00,
2013-05-13 15:53:00,86.0,21.0,-100.00,West,263,5.0,14.0,9,0.00,,,0.00,1180.000000,,2013-05-13 21:53:00,
2013-05-13 16:23:00,89.0,20.0,-100.00,NNW,327,5.0,13.0,8,0.00,,,-99.99,1100.000000,,2013-05-13 22:23:00,
2013-05-13 16:32:00,89.0,20.0,-100.00,NNW,327,5.0,13.0,8,0.00,,,-99.99,1100.000000,,2013-05-13 22:32:00,
2013-05-13 16:42:00,89.0,20.0,-100.00,NNW,327,5.0,13.0,8,0.00,,,-99.99,1100.000000,,2013-05-13 22:42:00,
2013-05-13 16:52:00,89.0,20.0,-100.00,NNW,327,5.0,13.0,8,0.00,,,-99.99,1100.000000,,2013-05-13 22:52:00,
2013-05-13 17:23:00,86.0,18.0,-100.00,SW,235,5.0,17.0,8,0.00,,,0.00,831.000000,,2013-05-13 23:23:00,
2013-05-13 17:33:00,86.0,18.0,-100.00,SW,235,5.0,17.0,8,0.00,,,0.00,831.000000,,2013-05-13 23:33:00,
2013-05-13 17:42:00,86.0,18.0,-100.00,SW,235,5.0,17.0,8,0.00,,,0.00,831.000000,,2013-05-13 23:42:00,
2013-05-13 17:53:00,86.0,18.0,-100.00,SW,235,5.0,17.0,8,0.00,,,0.00,831.000000,,2013-05-13 23:53:00,
2013-05-13 18:22:00,85.0,20.0,-100.00,West,262,6.0,14.0,9,0.00,,,0.00,590.000000,,2013-05-14 00:22:00,
2013-05-13 18:31:00,85.0,20.0,-100.00,West,262,6.0,14.0,9,0.00,,,0.00,590.000000,,2013-05-14 00:31:00,
2013-05-13 18:41:00,85.0,20.0,-100.00,West,262,6.0,14.0,9,0.00,,,0.00,590.000000,,2013-05-14 00:41:00,
2013-05-13 18:51:00,85.0,20.0,-100.00,West,262,6.0,14.0,9,0.00,,,0.00,590.000000,,2013-05-14 00:51:00,
2013-05-13 19:21:00,78.0,34.0,-100.00,ESE,109,15.0,30.0,20,0.00,,,0.00,188.000000,,2013-05-14 01:21:00,
2013-05-13 19:31:00,78.0,34.0,-100.00,ESE,109,15.0,30.0,20,0.00,,,0.00,188.000000,,2013-05-14 01:31:00,
2013-05-13 19:43:00,78.0,34.0,-100.00,ESE,109,15.0,30.0,20,0.00,,,0.00,188.000000,,2013-05-14 01:43:00,
2013-05-13 19:52:00,78.0,34.0,-100.00,ESE,109,15.0,30.0,20,0.00,,,0.00,188.000000,,2013-05-14 01:52:00,
2013-05-13 20:22:00,74.0,34.0,-100.00,ESE,123,7.0,25.0,23,0.00,,,0.00,47.000000,,2013-05-14 02:22:00,
2013-05-13 20:31:00,74.0,34.0,-100.00,ESE,123,7.0,25.0,23,0.00,,,0.00,47.000000,,2013-05-14 02:31:00,
2013-05-13 20:42:00,74.0,34.0,-100.00,ESE,123,7.0,25.0,23,0.00,,,0.00,47.000000,,2013-05-14 02:42:00,
2013-05-13 20:51:00,74.0,34.0,-100.00,ESE,123,7.0,25.0,23,0.00,,,0.00,47.000000,,2013-05-14 02:51:00,
2013-05-13 21:21:00,70.0,34.0,-100.00,ESE,104,6.0,14.0,27,0.00,,,0.00,3.000000,,2013-05-14 03:21:00,
2013-05-13 21:33:00,70.0,34.0,-100.00,ESE,104,6.0,14.0,27,0.00,,,0.00,3.000000,,2013-05-14 03:33:00,
2013-05-13 21:42:00,70.0,34.0,-100.00,ESE,104,6.0,14.0,27,0.00,,,0.00,3.000000,,2013-05-14 03:42:00,
2013-05-13 21:52:00,70.0,34.0,-100.00,ESE,104,6.0,14.0,27,0.00,,,0.00,3.000000,,2013-05-14 03:52:00,
2013-05-13 22:22:00,67.0,35.0,-100.00,East,91,7.0,14.0,30,0.00,,,0.00,0.000000,,2013-05-14 04:22:00,
2013-05-13 22:32:00,67.0,35.0,-100.00,East,91,7.0,14.0,30,0.00,,,0.00,0.000000,,2013-05-14 04:32:00,
2013-05-13 22:43:00,67.0,35.0,-100.00,East,91,7.0,14.0,30,0.00,,,0.00,0.000000,,2013-05-14 04:43:00,
2013-05-13 22:52:00,67.0,35.0,-100.00,East,91,7.0,14.0,30,0.00,,,0.00,0.000000,,2013-05-14 04:52:00,
2013-05-13 23:21:00,64.0,34.0,-100.00,East,85,8.0,13.0,33,0.00,,,0.00,0.000000,,2013-05-14 05:21:00,
2013-05-13 23:32:00,64.0,34.0,-100.00,East,85,8.0,13.0,33,0.00,,,0.00,0.000000,,2013-05-14 05:32:00,
2013-05-13 23:42:00,64.0,34.0,-100.00,East,85,8.0,13.0,33,0.00,,,0.00,0.000000,,2013-05-14 05:42:00,
2013-05-13 23:52:00,64.0,34.0,-100.00,East,85,8.0,13.0,33,0.00,,,0.00,0.000000,,2013-05-14 05:52:00,